Total_Precipitation_Accumulation
0.04 0.04 0.07 0.05 0.04 0.04 0.06 0.08 0.10 0.10 0.08 0.07 0.05 0.03 0.02 0.02 0.02 0.03 0.03 0.04 0.04 0.05 0.05 0.07 0.08 0.08 0.08 0.08 0.08 0.07 0.07 0.10 0.12 0.14 0.16 0.19 0.23 0.31 0.39 0.40 0.56 0.46 0.25
0.01 0.03 0.07 0.07 0.06 0.06 0.07 0.09 0.10 0.10 0.10 0.09 0.08 0.05 0.03 0.03 0.03 0.03 0.04 0.04 0.04 0.05 0.05 0.05 0.05 0.05 0.04 0.05 0.06 0.05 0.07 0.11 0.16 0.24 0.28 0.28 0.29 0.38 0.42 0.38 0.60 0.38 0.20
0.01 0.02 0.05 0.08 0.06 0.05 0.06 0.08 0.10 0.11 0.12 0.10 0.08 0.07 0.05 0.04 0.04 0.04 0.04 0.04 0.05 0.05 0.05 0.04 0.04 0.04 0.03 0.04 0.04 0.06 0.08 0.13 0.24 0.39 0.57 0.52 0.27 0.35 0.38 0.34 0.35 0.20 0.16
0.02 0.02 0.03 0.07 0.08 0.06 0.06 0.08 0.10 0.11 0.11 0.10 0.08 0.07 0.07 0.06 0.05 0.05 0.05 0.05 0.06 0.06 0.04 0.04 0.03 0.03 0.03 0.03 0.04 0.07 0.10 0.16 0.28 0.54 0.84 0.53 0.23 0.20 0.24 0.21 0.18 0.13 0.13
0.04 0.02 0.03 0.05 0.07 0.07 0.06 0.07 0.08 0.09 0.09 0.09 0.08 0.07 0.06 0.06 0.06 0.06 0.05 0.06 0.07 0.07 0.05 0.04 0.03 0.02 0.02 0.03 0.04 0.07 0.12 0.19 0.35 0.60 0.60 0.46 0.45 0.22 0.16 0.17 0.16 0.12 0.11
0.04 0.03 0.04 0.06 0.07 0.07 0.06 0.06 0.07 0.07 0.08 0.08 0.07 0.06 0.06 0.07 0.07 0.07 0.07 0.06 0.07 0.07 0.05 0.04 0.03 0.02 0.03 0.04 0.05 0.08 0.13 0.24 0.40 0.42 0.39 0.40 0.43 0.27 0.17 0.22 0.22 0.16 0.12
0.06 0.04 0.05 0.08 0.09 0.08 0.08 0.07 0.07 0.07 0.07 0.08 0.08 0.07 0.06 0.07 0.08 0.08 0.08 0.06 0.07 0.08 0.06 0.05 0.03 0.03 0.04 0.04 0.06 0.09 0.16 0.29 0.39 0.37 0.38 0.52 0.50 0.30 0.29 0.44 0.49 0.35 0.21
0.18 0.10 0.08 0.11 0.12 0.11 0.10 0.10 0.10 0.10 0.09 0.08 0.08 0.08 0.07 0.08 0.09 0.08 0.08 0.08 0.10 0.11 0.09 0.06 0.04 0.04 0.04 0.05 0.07 0.09 0.17 0.24 0.29 0.38 0.41 0.51 0.43 0.37 0.49 0.70 0.73 0.58 0.42
0.27 0.22 0.17 0.13 0.12 0.13 0.15 0.16 0.14 0.12 0.12 0.10 0.09 0.09 0.08 0.10 0.11 0.11 0.11 0.12 0.13 0.14 0.14 0.11 0.07 0.06 0.06 0.06 0.08 0.10 0.17 0.26 0.36 0.47 0.53 0.47 0.32 0.34 0.56 0.73 0.67 0.60 0.52
0.36 0.32 0.29 0.24 0.19 0.16 0.15 0.17 0.18 0.17 0.15 0.12 0.12 0.12 0.12 0.14 0.16 0.18 0.17 0.18 0.20 0.22 0.21 0.20 0.17 0.15 0.15 0.14 0.15 0.16 0.21 0.23 0.43 0.48 0.65 0.67 0.42 0.49 0.75 0.86 0.73 0.66 0.59
0.52 0.35 0.26 0.28 0.27 0.22 0.18 0.16 0.18 0.18 0.18 0.17 0.19 0.20 0.22 0.32 0.45 0.51 0.50 0.53 0.51 0.48 0.45 0.41 0.40 0.38 0.33 0.23 0.28 0.38 0.30 0.21 0.44 0.56 0.66 0.69 0.55 0.71 1.00 1.07 0.99 0.86 0.75
0.71 0.41 0.33 0.28 0.28 0.24 0.21 0.28 0.30 0.30 0.33 0.31 0.43 0.50 0.58 0.72 0.74 0.62 0.82 0.91 0.90 0.96 0.87 0.82 0.97 0.83 0.61 0.53 0.87 1.20 0.51 0.34 0.42 0.54 0.57 0.61 0.82 1.09 1.33 1.26 1.13 1.03 0.92
0.59 0.57 0.53 0.38 0.37 0.35 0.42 0.40 0.42 0.51 0.65 0.62 0.66 0.80 0.99 0.95 0.80 0.71 0.85 1.11 1.27 1.40 1.35 1.45 1.54 1.16 1.10 1.23 1.37 1.31 0.82 0.73 0.75 0.74 0.76 0.95 1.26 1.52 1.65 1.44 1.29 1.20 1.10
0.81 0.87 0.95 0.71 0.70 0.65 0.66 0.63 0.59 0.64 0.81 0.95 1.11 1.17 1.34 1.36 1.21 1.06 1.08 1.28 1.46 1.62 1.94 1.96 1.84 1.69 1.65 1.57 1.48 1.30 1.16 1.16 1.08 1.19 1.37 1.32 1.44 1.64 1.84 1.72 1.51 1.40 1.33
1.37 1.45 1.45 1.16 1.10 1.10 1.14 1.11 0.97 1.03 1.12 1.22 1.43 1.56 1.67 1.82 1.74 1.64 1.56 1.51 1.42 1.60 1.93 2.14 2.06 2.05 1.99 1.89 1.70 1.52 1.37 1.34 1.32 1.42 1.52 1.70 1.70 1.65 1.73 1.86 1.75 1.58 1.48
1.83 1.91 1.89 1.76 1.76 1.68 1.61 1.62 1.58 1.36 1.36 1.38 1.47 1.54 1.72 1.93 2.14 2.20 2.10 1.92 1.63 1.61 1.73 2.06 2.18 2.30 2.19 2.05 1.52 1.44 1.45 1.47 1.51 1.50 1.55 2.01 2.05 1.69 1.57 1.64 1.76 1.78 1.67
2.49 2.39 2.30 2.28 2.44 2.31 2.10 1.91 1.71 1.63 1.64 1.70 1.71 1.67 1.86 2.09 2.29 2.29 2.05 1.73 1.54 1.63 1.73 1.69 1.73 2.03 1.82 1.68 1.49 1.59 1.64 1.54 1.50 1.49 1.52 1.81 1.89 1.59 1.36 1.30 1.45 1.59 1.70
3.03 2.81 2.65 2.48 2.63 2.60 2.46 2.33 2.05 1.86 1.93 1.83 1.70 1.66 1.74 1.94 1.96 1.98 1.63 1.28 1.36 1.57 1.66 1.62 1.57 1.67 1.66 1.69 1.67 1.64 1.62 1.52 1.29 1.22 1.13 1.12 1.23 1.08 1.15 1.31 1.29 1.27 1.51
3.39 3.40 3.31 3.25 3.04 2.88 2.75 2.63 2.39 2.16 1.91 1.67 1.65 1.60 1.49 1.41 1.43 1.51 1.23 1.11 1.26 1.40 1.44 1.41 1.55 1.64 1.52 1.58 1.60 1.49 1.24 1.11 0.97 0.86 0.82 0.75 0.79 0.83 0.81 1.02 1.11 1.17 1.46
3.28 3.66 3.79 3.66 3.29 2.86 2.53 2.21 2.11 1.94 1.80 1.65 1.55 1.42 1.23 1.11 1.12 1.29 1.18 1.08 1.21 1.29 1.26 1.40 1.51 1.58 1.36 1.34 1.28 1.04 0.87 0.66 0.61 0.56 0.48 0.52 0.55 0.55 0.64 0.77 1.02 0.94 1.29
3.00 3.43 3.59 3.55 2.89 2.27 2.00 1.77 1.66 1.50 1.37 1.38 1.34 1.25 1.18 1.08 1.06 1.20 1.10 1.02 1.02 1.04 1.01 1.15 1.27 1.28 1.06 1.26 1.41 0.94 0.65 0.51 0.44 0.34 0.32 0.36 0.39 0.47 0.62 0.82 1.01 1.02 1.16
2.60 3.05 3.07 2.63 2.09 1.67 1.46 1.32 1.21 1.16 1.05 0.97 0.90 0.87 0.83 0.83 0.88 0.96 0.94 0.85 0.81 0.84 0.83 0.90 1.04 1.04 0.92 1.19 1.33 1.20 0.85 0.63 0.50 0.35 0.35 0.36 0.40 0.51 0.58 0.68 0.95 1.10 1.14
2.29 2.23 1.86 1.55 1.28 1.02 0.88 0.83 0.84 0.81 0.71 0.61 0.54 0.52 0.55 0.59 0.60 0.60 0.61 0.65 0.70 0.70 0.72 0.78 0.94 1.05 0.93 0.96 1.19 1.31 1.05 0.74 0.65 0.50 0.49 0.53 0.57 0.64 0.71 0.85 0.97 1.08 1.17
1.61 1.39 1.17 1.02 0.88 0.77 0.75 0.70 0.74 0.63 0.54 0.48 0.40 0.40 0.42 0.44 0.43 0.42 0.44 0.55 0.61 0.67 0.71 0.66 0.71 0.87 0.93 0.85 0.95 1.06 1.08 1.08 1.02 0.74 0.56 0.53 0.60 0.63 0.66 0.71 0.81 0.96 1.04
0.98 0.88 0.75 0.80 0.85 0.77 0.71 0.65 0.62 0.51 0.42 0.36 0.37 0.41 0.44 0.44 0.42 0.39 0.38 0.40 0.50 0.58 0.64 0.66 0.69 0.74 0.81 0.79 0.81 0.86 0.93 1.03 1.03 0.94 0.69 0.54 0.55 0.54 0.61 0.67 0.74 0.81 0.89
0.51 0.52 0.51 0.58 0.67 0.62 0.59 0.56 0.53 0.48 0.43 0.38 0.35 0.36 0.35 0.38 0.39 0.39 0.38 0.41 0.43 0.44 0.47 0.55 0.61 0.66 0.72 0.74 0.74 0.81 0.89 0.88 0.88 0.99 0.86 0.70 0.64 0.58 0.67 0.74 0.85 0.94 0.96